| time (UTC) | temp F | wind direction | speed knots | gust knots | rain 1hr in | rain 24hr in | rain mn in | humidity % | barometer mb |
| 20260503222403 | 80 | 155 | 2.6 | 13.0 | 0.00 | 0.00 | 0.00 | 36 | 1015.9 |
| 20260503220224 | 80 | 135 | 2.6 | 8.7 | 0.00 | 0.00 | 0.00 | 36 | 1016.2 |
| 20260503215205 | 80 | 238 | 3.5 | 11.3 | 0.00 | 0.00 | 0.00 | 36 | 1016.4 |
| 20260503214142 | 80 | 179 | 3.5 | 13.9 | 0.00 | 0.00 | 0.00 | 35 | 1016.5 |
| 20260503213201 | 80 | 175 | 3.5 | 13.9 | 0.00 | 0.00 | 0.00 | 34 | 1016.6 |
| 20260503212211 | 80 | 188 | 2.6 | 15.6 | 0.00 | 0.00 | 0.00 | 36 | 1016.8 |
| 20260503211141 | 80 | 212 | 4.3 | 15.6 | 0.00 | 0.00 | 0.00 | 35 | 1017.1 |
| 20260503210146 | 80 | 211 | 3.5 | 12.2 | 0.00 | 0.00 | 0.00 | 35 | 1017.2 |
| 20260503205200 | 79 | 141 | 3.5 | 12.2 | 0.00 | 0.00 | 0.00 | 33 | 1017.6 |
| 20260503202952 | 80 | 174 | 3.5 | 11.3 | 0.00 | 0.00 | 0.00 | 34 | 1017.9 |
| 20260503202000 | 79 | 161 | 3.5 | 12.2 | 0.00 | 0.00 | 0.00 | 34 | 1018.2 |
| 20260503200948 | 79 | 153 | 4.3 | 12.2 | 0.00 | 0.00 | 0.00 | 35 | 1018.1 |
| 20260503195928 | 79 | 118 | 3.5 | 13.9 | 0.00 | 0.00 | 0.00 | 33 | 1018.3 |
| 20260503194854 | 79 | 202 | 5.2 | 13.9 | 0.00 | 0.00 | 0.00 | 35 | 1018.6 |
| 20260503193917 | 79 | 203 | 3.5 | 10.4 | 0.00 | 0.00 | 0.00 | 33 | 1018.6 |
| 20260503192845 | 79 | 187 | 4.3 | 10.4 | 0.00 | 0.00 | 0.00 | 31 | 1018.8 |
| 20260503191825 | 79 | 134 | 3.5 | 12.2 | 0.00 | 0.00 | 0.00 | 31 | 1018.9 |
| 20260503190758 | 79 | 208 | 3.5 | 12.2 | 0.00 | 0.00 | 0.00 | 31 | 1018.9 |
| 20260503185751 | 79 | 218 | 2.6 | 10.4 | 0.00 | 0.00 | 0.00 | 35 | 1019.1 |
| 20260503184716 | 79 | 226 | 1.7 | 11.3 | 0.00 | 0.00 | 0.00 | 37 | 1019.3 |
| 20260503182620 | 78 | 142 | 3.5 | 9.6 | 0.00 | 0.00 | 0.00 | 36 | 1019.6 |
| 20260503181558 | 79 | 280 | 2.6 | 6.1 | 0.00 | 0.00 | 0.00 | 36 | 1019.8 |
| 20260503180529 | 79 | 145 | 2.6 | 8.7 | 0.00 | 0.00 | 0.00 | 33 | 1019.9 |
| 20260503174342 | 78 | 177 | 3.5 | 10.4 | 0.00 | 0.00 | 0.00 | 36 | 1020.5 |
| 20260503173352 | 78 | 190 | 2.6 | 10.4 | 0.00 | 0.00 | 0.00 | 37 | 1020.6 |
| 20260503172402 | 77 | 144 | 3.5 | 13.0 | 0.00 | 0.00 | 0.00 | 37 | 1020.7 |
| 20260503170220 | 76 | 212 | 3.5 | 11.3 | 0.00 | 0.00 | 0.00 | 41 | 1021.0 |
| 20260503081528 | 59 | 200 | 0.0 | 0.0 | 0.00 | 0.01 | 0.00 | 70 | 1019.8 |
| 20260503080531 | 59 | 200 | 0.0 | 2.6 | 0.00 | 0.01 | 0.00 | 69 | 1019.9 |
| 20260503072459 | 57 | 165 | 0.0 | 0.0 | 0.00 | 0.01 | 0.00 | 73 | 1020.1 |
| 20260503071447 | 57 | 165 | 0.0 | 0.0 | 0.00 | 0.01 | 0.00 | 73 | 1020.3 |
| 20260503070433 | 57 | 165 | 0.0 | 0.0 | 0.00 | 0.01 | 0.00 | 72 | 1020.2 |
| 20260503054543 | 60 | 161 | 0.0 | 0.0 | 0.00 | 0.01 | 0.00 | 67 | 1020.4 |
| 20260503053604 | 60 | 161 | 0.0 | 0.0 | 0.00 | 0.01 | 0.00 | 67 | 1020.5 |
| 20260503052542 | 62 | 161 | 0.0 | 0.0 | 0.00 | 0.01 | 0.00 | 66 | 1020.5 |
| 20260503051559 | 62 | 161 | 0.0 | 1.7 | 0.00 | 0.01 | 0.00 | 62 | 1020.5 |
| 20260503050533 | 61 | 163 | 0.0 | 1.7 | 0.00 | 0.01 | 0.00 | 63 | 1020.5 |
| 20260503045526 | 61 | 184 | 0.0 | 1.7 | 0.00 | 0.01 | 0.01 | 63 | 1020.6 |
| 20260503044526 | 62 | 184 | 0.0 | 1.7 | 0.00 | 0.01 | 0.01 | 63 | 1020.5 |
| 20260503043529 | 61 | 179 | 0.9 | 1.7 | 0.00 | 0.01 | 0.01 | 63 | 1020.5 |
| 20260503042510 | 62 | 154 | 0.0 | 0.9 | 0.00 | 0.01 | 0.01 | 63 | 1020.5 |
| 20260503040336 | 63 | 154 | 0.0 | 0.9 | 0.00 | 0.01 | 0.01 | 60 | 1020.2 |
| 20260503035354 | 63 | 154 | 0.0 | 0.0 | 0.00 | 0.01 | 0.01 | 60 | 1020.3 |
| 20260503034325 | 64 | 154 | 0.0 | 0.0 | 0.00 | 0.01 | 0.01 | 60 | 1020.3 |
| 20260503033316 | 64 | 140 | 0.0 | 0.9 | 0.00 | 0.01 | 0.01 | 58 | 1020.2 |
| 20260503032307 | 64 | 140 | 0.0 | 1.7 | 0.00 | 0.01 | 0.01 | 58 | 1020.1 |
| 20260503031245 | 64 | 140 | 0.9 | 1.7 | 0.00 | 0.01 | 0.01 | 58 | 1019.9 |
| 20260503030224 | 63 | 141 | 0.9 | 1.7 | 0.00 | 0.01 | 0.01 | 59 | 1019.9 |
| 20260503025150 | 63 | 119 | 0.0 | 1.7 | 0.00 | 0.01 | 0.01 | 59 | 1019.8 |
| 20260503022956 | 64 | 116 | 0.0 | 1.7 | 0.00 | 0.01 | 0.01 | 60 | 1019.6 |
| 20260503021941 | 64 | 111 | 0.0 | 1.7 | 0.00 | 0.01 | 0.01 | 60 | 1019.4 |
| 20260503020929 | 64 | 113 | 0.9 | 2.6 | 0.00 | 0.01 | 0.01 | 59 | 1019.2 |
| 20260503015859 | 65 | 86 | 0.0 | 2.6 | 0.00 | 0.01 | 0.01 | 59 | 1019.0 |
| 20260503014830 | 65 | 94 | 0.0 | 1.7 | 0.00 | 0.01 | 0.01 | 58 | 1019.0 |
| 20260503013816 | 66 | 93 | 0.0 | 1.7 | 0.00 | 0.01 | 0.01 | 58 | 1019.0 |
| 20260503012739 | 67 | 82 | 0.0 | 1.7 | 0.00 | 0.01 | 0.01 | 57 | 1019.0 |
| 20260503011746 | 68 | 82 | 0.0 | 0.9 | 0.00 | 0.01 | 0.01 | 55 | 1019.0 |
| 20260503010740 | 69 | 82 | 0.0 | 0.0 | 0.00 | 0.01 | 0.01 | 54 | 1018.8 |
| 20260503005721 | 70 | 82 | 0.0 | 0.9 | 0.00 | 0.01 | 0.01 | 50 | 1018.8 |
| 20260503004742 | 70 | 82 | 0.0 | 0.0 | 0.00 | 0.01 | 0.01 | 49 | 1018.9 |
| 20260503003717 | 71 | 65 | 0.9 | 3.5 | 0.00 | 0.01 | 0.01 | 46 | 1018.8 |
| 20260503002723 | 72 | 77 | 0.9 | 3.5 | 0.00 | 0.01 | 0.01 | 45 | 1018.7 |
| 20260503001653 | 73 | 48 | 0.9 | 7.0 | 0.00 | 0.01 | 0.01 | 44 | 1018.7 |
| 20260503000649 | 73 | 51 | 0.9 | 7.0 | 0.00 | 0.01 | 0.01 | 42 | 1018.7 |
| 20260502235654 | 74 | 66 | 0.9 | 5.2 | 0.00 | 0.01 | 0.01 | 42 | 1018.7 |
| 20260502234640 | 74 | 36 | 0.9 | 7.0 | 0.00 | 0.01 | 0.01 | 42 | 1018.6 |
| 20260502233610 | 74 | 52 | 1.7 | 7.0 | 0.00 | 0.01 | 0.01 | 42 | 1018.6 |
| 20260502232625 | 75 | 43 | 1.7 | 6.1 | 0.00 | 0.01 | 0.01 | 42 | 1018.6 |
| 20260502230408 | 75 | 55 | 2.6 | 7.8 | 0.00 | 0.01 | 0.01 | 42 | 1018.5 |
| 20260502225333 | 75 | 96 | 2.6 | 8.7 | 0.00 | 0.01 | 0.01 | 39 | 1018.5 |
| 20260502224258 | 75 | 49 | 2.6 | 8.7 | 0.00 | 0.02 | 0.01 | 38 | 1018.5 |